Home > Weather > Bahawalpur > Past weeks

Flag for Pakistan Past Weather in Bahawalpur, Pakistan — Yesterday and Last 2 Weeks

Now
99 °F

Passing clouds.


Feels Like: 115 °F
Forecast: 90 / 105 °F
Wind: 7 mph from West

Location: Multan Airport

Current Time: Jul 29, 2016 at 7:05:31 PM

Latest Report: Jul 29, 2016 at 5:55 PM


Visibility: 2 mi

Pressure: 29.42 "Hg

Humidity: 50%

Dew Point: 77 °F

Location of BahawalpurLocation

Past Weather in Bahawalpur — Graph

°F

Bahawalpur Temperature Yesterday

Maximum temperature yesterday: 95 °F (at 3:55 PM)
Minimum temperature yesterday: 77 °F (at 1:00 AM)
Average temperature yesterday: 86 °F

High & Low Weather Summary for the Past Weeks

 TemperatureHumidityPressure
High108 °F (Jul 25, 2:55 PM)100% (Jul 27, 10:55 PM)32.46 "Hg (Jul 27, 10:55 PM)
Low73 °F (Jul 27, 10:55 PM)28% (Jul 25, 3:55 PM)29.36 "Hg (Jul 14, 5:00 PM)
Average94 °F58%29.51 "Hg
* Reported Jul 14 3:50 PM — Jul 29 3:55 PM, Bahawalpur, Weather by CustomWeather, © 2016

Note: Actual official high and low records may vary slightly from our data, if they occured in-between our weather recording intervals... More about our weather records

Advertising

Bahawalpur Weather History for the Previous 24 Hours

Scroll right to see more
 ConditionsComfort  
Time TempWeatherWind HumidityBarometerVisibility
3:55 PM
Fri, Jul 29
100 °FHaze.7 mph47%29.45 "Hg2 mi
1:55 PM99 °FScattered clouds.7 mph50%29.50 "Hg2 mi
12:55 PM97 °FScattered clouds.9 mph56%29.53 "Hg2 mi
11:55 AM97 °FScattered clouds.7 mph53%29.56 "Hg2 mi
10:55 AM95 °FScattered clouds.5 mph56%29.56 "Hg2 mi
9:55 AM93 °FScattered clouds.7 mph63%29.56 "Hg2 mi
8:55 AM91 °FClear.No wind67%29.53 "Hg2 mi
7:55 AM90 °FPassing clouds.No wind75%29.53 "Hg2 mi
6:55 AM86 °FScattered clouds.No wind79%29.53 "Hg2 mi
5:55 AM86 °FScattered clouds.No wind79%29.53 "Hg2 mi
4:55 AM86 °FPassing clouds.No wind79%29.53 "Hg2 mi
3:55 AM86 °FPassing clouds.No wind79%29.50 "Hg2 mi
2:55 AM86 °FPassing clouds.No wind79%29.50 "Hg2 mi
1:50 AM86 °FPassing clouds.No wind79%29.50 "Hg2 mi
12:50 AM86 °FPassing clouds.5 mph75%29.50 "Hg2 mi
11:50 PM
Thu, Jul 28
88 °FPassing clouds.5 mph75%29.53 "Hg2 mi
10:55 PM88 °FMostly cloudy.5 mph70%29.56 "Hg2 mi
9:55 PM90 °FPassing clouds.7 mph75%29.56 "Hg2 mi
8:55 PM91 °FPassing clouds.No wind67%29.56 "Hg2 mi
7:55 PM91 °FPassing clouds.7 mph67%29.53 "Hg2 mi
Weather by CustomWeather, © 2016

See weather overviewHow to use our weather pages